Skip Page Navigation
NASA JPL Caltech
NASA Logo - Jet Propulsion Laboratory + View the NASA Portal
+ Center for Near-Earth Object Studies
JPL Home Earth Solar System Stars & Galaxies Technology
JPL Solar System Dynamics
BODIES ORBITS EPHEMERIDES TOOLS PHYSICAL DATA DISCOVERY FAQ SITE MAP
JPL Small-Body Database Browser
Search: [ help ]  
17583 (1994 WV2)
Classification: Main-belt Asteroid          SPK-ID: 2017583
Ephemeris | Orbit Diagram | Orbital Elements | Mission Design | Physical Parameters | Discovery Circumstances ]

[ show orbit diagram ]
Orbital Elements at Epoch 2459396.5 (2021-Jul-01.0) TDB
Reference: JPL 35 (heliocentric ecliptic J2000)
 Element Value Uncertainty (1-sigma)   Units 
e .2029733314342903 2.1008e-08  
a 2.280102896274186 7.9399e-09 au
q 1.817302815404441 4.8791e-08 au
i 5.120905194198383 6.8882e-07 deg
node 271.1187217559719 1.2095e-05 deg
peri 28.65322886472067 1.345e-05 deg
M 19.16208420902112 5.6312e-06 deg
tp 2459329.562368733765
(2021-Apr-25.06236873)
1.9407e-05 TDB
period 1257.563999457836
3.44
6.5687e-06
1.798e-08
d
yr
n .2862677367952677 1.4953e-09 deg/d
Q 2.742902977143932 9.5515e-09 au
  Orbit Determination Parameters
   # obs. used (total)      1929  
   data-arc span      13857 days (37.94 yr)  
   first obs. used      1983-07-16  
   last obs. used      2021-06-23  
   planetary ephem.      DE441  
   SB-pert. ephem.      SB441-N16  
   condition code      0  
   norm. resid. RMS      .52336  
   source      ORB  
   producer      Otto Matic  
   solution date      2021-Jul-08 04:26:12  

Additional Information
 Earth MOID = .803086 au 
 Jupiter MOID = 2.47437 au 
 T_jup = 3.573 
[ show covariance matrix ]

Ephemeris | Orbit Diagram | Orbital Elements | Mission Design | Physical Parameters | Discovery Circumstances ]

Physical Parameter Table
Parameter Symbol Value Units Sigma Reference Notes
absolute magnitude H 14.46   n/a MPO614063  
diameter diameter 3.173 km 0.182 urn:nasa:pds:neowise_diameters_albedos::2.0[mainbelt] (http://adsabs.harvard.edu/abs/2011ApJ...741...68M)  
rotation period rot_per 4.279 h n/a LCDB (Rev. 2020-October); Warner et al., 2009 Result based on less than full coverage, so that the period may be wrong by 30 percent or so.
Published Reference List:
[Waszczak, A.; Chang, C.-K.; Ofeck, E.O.; Laher, F.; et al. (2015) Astron. J. 150, A75.]
geometric albedo albedo 0.367   0.073 urn:nasa:pds:neowise_diameters_albedos::2.0[mainbelt] (http://adsabs.harvard.edu/abs/2011ApJ...741...68M)  

17583 (1994 WV2)          Discovered 1994-Nov-30 by Kobayashi, T. at Oizumi
Reference: 20001013/Numbers.arcLast Updated: 2004-04-19

Alternate Designations
 1994 WV2 = 2000 MU6 
Ephemeris | Orbit Diagram | Orbital Elements | Mission Design | Physical Parameters | Discovery Circumstances ]
ABOUT SSD CREDITS/AWARDS PRIVACY/COPYRIGHT GLOSSARY LINKS
FirstGov 2021-Aug-01 02:30 UT
(server date/time)  
NASA Home Page
Site Manager:   Ryan S. Park
Webmaster  Alan B. Chamberlin